Theta_e
342 345 346 347 346 346 349 351 351 351 351 349 349 347 346 345 344 345 346 345 345 344 345 345 344 343 342 342 341 341 341 341 342 342 342 342 342 341 341 341 341 341
335 336 338 342 345 346 348 351 351 351 351 350 349 349 347 346 345 346 346 346 345 344 345 344 344 343 342 342 342 341 341 341 342 342 342 343 342 342 342 342 342 342
334 333 333 335 337 340 342 345 349 351 352 351 350 349 349 347 346 346 346 346 346 345 345 345 345 344 343 343 342 342 342 342 342 342 342 343 343 342 342 342 342 342
330 330 332 334 336 337 337 338 342 347 351 352 351 350 350 349 347 347 347 346 347 346 346 345 345 345 344 344 343 342 342 342 342 341 342 342 343 343 342 342 342 343
330 330 333 334 334 334 335 336 338 341 347 351 352 351 351 350 349 348 348 347 347 347 347 346 346 345 345 345 345 344 343 343 342 342 342 342 342 343 343 343 343 343
334 334 336 337 336 334 334 333 333 338 342 347 351 352 351 350 350 349 348 348 347 347 348 347 346 346 345 345 345 345 344 344 343 343 342 342 342 343 343 343 343 343
336 336 336 337 337 336 338 337 333 334 340 343 346 349 351 351 351 350 349 348 347 347 348 348 347 347 346 346 346 346 345 345 344 343 343 342 342 342 343 343 343 343
335 335 335 336 336 336 339 339 336 334 337 340 341 344 349 351 351 351 350 348 349 349 348 349 348 347 347 346 346 346 346 345 345 344 343 342 342 341 341 342 343 344
335 335 335 336 337 337 338 338 336 335 334 336 339 341 346 351 352 351 350 349 349 349 349 349 348 347 347 347 346 346 346 346 345 344 344 343 342 341 340 341 342 343
336 335 336 336 336 337 337 335 335 337 335 334 339 340 344 350 351 351 351 349 349 349 349 349 348 348 348 347 346 346 346 346 345 345 344 343 342 341 340 340 341 343
340 337 336 336 336 335 335 334 334 336 336 335 338 341 343 348 350 351 351 350 350 349 349 349 349 348 348 347 347 347 347 346 345 345 344 344 343 341 340 340 340 342
342 342 340 338 338 336 336 336 334 332 334 336 337 340 341 345 349 350 351 351 350 349 349 349 348 347 347 347 347 347 347 346 345 345 344 344 343 342 341 341 340 341
337 342 343 342 341 340 339 339 334 329 330 333 336 339 339 342 347 349 349 349 350 349 349 349 348 347 347 347 348 348 347 346 346 345 344 344 343 342 341 341 341 341
326 334 340 342 342 342 341 341 338 335 334 334 337 340 339 340 345 348 349 349 349 349 349 348 348 348 347 347 348 348 347 346 345 344 344 344 343 342 341 341 341 342
323 325 329 335 341 343 342 342 341 340 340 339 341 343 341 340 342 345 346 347 348 348 347 348 348 348 348 348 348 348 347 346 345 344 343 344 343 342 342 341 341 342
324 324 323 327 335 340 341 341 341 342 341 339 339 340 339 340 342 342 341 342 346 347 347 347 347 348 348 348 348 348 347 346 345 345 344 344 343 342 342 342 341 341
324 324 324 323 326 331 337 340 340 340 339 336 334 335 336 338 341 342 340 338 341 346 347 346 347 347 348 348 347 347 347 346 346 345 344 344 343 343 342 342 341 341
323 324 324 324 323 325 333 338 339 340 339 336 335 337 339 340 341 341 340 337 338 342 346 347 347 347 347 347 347 347 347 346 346 345 345 344 344 343 343 342 341 341
322 323 323 324 323 323 328 334 336 338 339 339 339 339 340 341 342 341 340 338 336 339 343 346 347 347 347 347 346 346 346 346 346 345 345 344 343 343 343 342 342 341
321 322 322 323 324 323 325 330 332 332 333 336 339 339 338 338 339 339 338 337 337 338 341 344 346 347 347 347 346 346 346 346 345 345 345 343 343 343 343 342 342 341
319 320 321 322 323 323 324 327 331 331 330 332 336 338 338 337 337 337 338 338 339 338 338 341 346 347 347 347 346 345 346 346 345 346 345 344 344 343 343 342 342 342
318 319 320 321 322 323 323 324 328 332 331 331 334 337 336 336 336 336 337 338 339 338 337 339 344 347 347 347 347 346 346 345 344 345 345 344 344 343 343 343 342 342
317 318 319 319 320 322 323 323 324 329 331 331 334 336 336 335 336 336 336 337 337 337 337 337 340 344 346 346 346 347 346 344 344 345 345 344 344 343 343 343 343 342
317 316 317 318 319 320 322 323 323 325 329 332 334 336 336 335 335 336 336 336 336 337 338 337 337 341 346 346 345 346 346 344 343 344 345 344 343 343 343 343 343 342
317 317 316 316 317 318 320 323 323 322 326 332 336 337 335 334 334 335 336 336 335 336 337 337 335 337 344 347 346 346 346 344 343 344 345 345 345 344 344 344 343 343
317 318 318 317 317 318 318 320 323 322 323 330 338 339 337 334 334 335 335 336 336 336 337 337 335 334 340 346 347 347 346 344 342 344 345 345 345 345 344 344 345 344
Wind_Speed
13 15 18 23 26 25 25 27 27 27 28 28 28 29 31 31 32 32 30 28 30 29 27 28 28 27 26 24 23 24 25 23 22 22 22 22 21 20 20 19 19 18
18 16 13 11 17 20 24 28 30 29 28 30 29 28 30 32 33 34 31 29 30 29 28 27 28 28 27 26 24 23 24 24 22 22 22 22 22 22 21 20 20 20
21 20 22 21 19 17 16 18 27 32 30 29 30 29 30 32 34 35 34 31 30 30 28 27 28 28 27 26 25 25 25 25 23 22 22 22 23 23 22 21 21 21
26 25 22 22 23 23 25 24 19 23 30 31 30 30 31 32 34 35 35 34 32 30 29 28 27 28 28 27 26 26 26 25 25 24 23 22 23 23 22 22 22 22
27 29 30 29 28 27 25 25 27 24 23 29 31 31 32 33 34 35 35 35 34 32 31 30 28 28 29 28 27 27 27 25 25 25 24 23 22 22 22 22 23 23
27 31 32 31 30 28 28 30 30 29 27 24 29 33 34 35 35 34 35 36 35 33 32 32 31 29 30 29 28 28 28 27 26 25 25 24 22 21 22 23 23 24
28 29 29 30 30 28 26 28 31 31 30 27 26 32 35 36 35 34 35 35 35 34 33 33 33 31 31 31 29 29 29 28 28 27 26 25 24 23 22 23 24 25
26 26 26 28 30 29 28 28 29 31 30 30 29 29 34 36 36 35 35 35 35 35 34 34 34 33 32 32 31 30 30 30 30 29 28 27 27 26 24 24 24 26
25 25 26 28 30 32 32 31 32 32 32 31 34 33 34 35 36 36 36 35 35 36 36 35 35 35 34 34 34 33 31 31 31 31 30 29 29 28 26 25 26 27
23 26 27 27 29 32 33 34 35 34 33 33 37 40 36 35 35 35 34 35 36 36 36 36 36 36 36 36 36 35 33 32 32 32 32 31 30 29 28 28 27 28
21 25 28 30 31 32 33 35 37 35 33 35 38 42 39 36 36 35 33 33 34 36 36 37 37 37 37 37 37 37 36 34 34 34 33 33 32 31 30 29 28 28
20 23 27 31 34 35 36 35 35 35 34 35 37 42 43 38 37 36 35 35 35 36 36 37 38 38 38 38 38 37 36 35 34 35 34 33 33 32 31 30 30 29
20 22 24 28 33 36 37 36 34 34 35 34 36 41 45 41 37 37 37 37 37 37 38 37 38 39 39 39 38 37 37 36 35 35 35 34 33 33 32 31 31 30
21 22 23 26 30 32 33 35 33 32 35 37 37 41 45 41 35 35 37 38 38 37 39 39 38 38 39 39 39 38 38 37 36 36 35 34 33 33 33 32 32 32
23 23 24 25 26 27 30 34 35 32 32 36 40 44 47 41 34 31 32 35 37 37 37 38 38 37 38 40 40 39 39 38 37 37 36 35 34 33 33 33 33 33
23 25 26 26 25 26 28 32 34 33 33 34 37 41 43 41 38 34 30 31 34 36 37 38 37 37 39 41 42 41 41 39 38 38 38 36 36 35 34 34 34 34
24 24 25 26 26 26 28 29 31 34 37 36 34 33 33 32 31 32 32 31 32 34 37 38 38 38 40 43 44 44 42 41 39 40 40 39 37 36 35 35 34 34
24 25 25 26 26 25 28 31 32 35 38 37 32 28 27 25 24 26 29 31 33 34 36 38 38 41 43 45 48 48 45 43 42 42 42 41 39 37 36 36 35 34
24 25 25 27 27 26 25 29 33 35 35 34 32 28 26 25 26 28 30 32 34 37 37 37 38 41 45 48 51 51 49 45 44 44 44 43 41 39 37 37 36 35
25 26 27 27 28 28 27 26 31 34 33 32 32 29 26 25 26 27 29 30 33 38 40 38 39 42 45 49 51 52 53 50 44 42 43 43 43 43 40 39 39 37
27 28 28 28 28 28 28 28 29 32 34 33 32 31 28 28 28 28 29 30 32 38 42 39 38 41 43 48 51 51 53 53 45 40 41 41 41 43 42 40 40 38
28 28 28 29 29 28 29 30 29 31 34 34 33 33 33 30 29 29 31 31 32 36 43 43 40 42 43 46 49 51 53 54 47 39 37 39 39 40 42 40 39 38
29 28 27 27 28 29 30 31 31 30 33 36 34 33 33 32 31 31 33 34 34 34 37 40 40 44 48 49 50 52 54 53 48 39 34 37 38 38 40 40 39 39
32 32 30 28 29 31 31 32 33 31 32 36 37 34 33 36 37 36 36 38 40 39 39 40 43 43 47 52 53 55 55 53 47 40 34 34 35 36 36 37 37 38
35 35 34 32 32 32 32 33 34 33 32 34 38 38 37 38 40 39 38 37 38 40 42 42 43 44 43 48 52 54 56 53 46 40 35 32 32 33 32 33 34 36
38 38 37 33 31 31 33 34 34 34 34 32 36 42 42 40 40 40 37 34 33 35 35 35 36 38 39 41 49 52 53 52 45 37 35 32 31 32 31 30 32 34
Wind_Direction
241 211 195 188 188 192 193 189 189 190 190 191 192 191 189 188 188 190 193 195 195 197 198 200 201 197 193 194 197 198 198 199 202 205 205 205 207 208 210 211 210 210
297 303 300 256 216 206 200 193 191 192 194 193 193 192 190 188 188 189 192 195 196 197 198 200 201 198 193 193 196 197 196 197 201 205 207 208 208 208 210 211 211 211
270 291 307 301 284 273 258 224 199 192 194 196 193 190 190 189 188 189 191 193 196 197 198 200 202 200 196 193 195 197 197 195 198 203 207 210 210 209 212 213 214 213
239 246 253 258 262 272 287 291 263 213 195 194 195 192 190 190 189 189 191 192 194 196 197 199 201 201 200 197 195 196 199 198 197 200 205 210 210 209 212 214 216 215
233 233 231 232 234 237 246 265 278 266 223 199 195 195 192 189 189 190 191 192 193 194 197 198 199 201 201 201 198 196 198 200 198 198 201 207 211 211 211 213 216 217
231 233 232 231 230 228 225 228 240 257 257 228 202 197 194 191 189 190 192 193 193 193 196 198 200 202 201 201 201 199 198 199 199 199 199 203 210 213 212 212 216 217
226 230 233 234 232 230 228 226 224 231 248 252 227 203 195 192 190 191 193 195 194 194 195 198 199 201 202 201 200 201 201 199 199 200 200 200 206 213 214 213 215 217
230 233 235 236 235 231 226 224 225 224 233 252 251 222 201 195 193 193 194 195 195 195 196 198 200 201 202 202 201 202 203 201 198 199 201 201 202 208 213 213 214 217
236 237 236 233 229 228 224 220 223 225 225 239 255 242 215 200 196 194 195 196 197 198 198 199 201 202 202 203 203 203 203 202 199 198 201 202 201 203 210 214 214 215
239 237 235 233 230 226 224 221 221 223 219 225 245 248 228 206 199 197 196 197 198 199 199 200 201 202 203 205 205 203 202 203 201 199 200 203 202 201 208 214 214 214
239 240 236 236 238 236 233 228 223 223 220 219 233 246 237 215 202 198 197 198 199 199 200 199 201 202 203 205 206 203 201 202 202 201 201 203 204 202 206 213 215 215
234 237 236 236 239 240 240 235 227 224 224 218 223 237 240 224 204 198 197 198 200 201 200 199 200 202 203 204 205 204 201 200 201 202 202 203 204 203 205 212 215 216
238 235 236 236 236 237 239 237 231 226 224 220 218 228 237 229 208 199 199 199 201 201 199 200 201 201 203 203 204 203 200 199 200 202 202 204 205 203 206 212 215 217
250 242 239 240 240 238 238 240 241 236 228 224 220 224 235 236 218 204 200 201 203 202 199 200 201 201 202 203 203 202 200 198 198 200 201 203 204 204 206 212 214 216
259 252 246 244 241 238 239 242 245 245 238 229 224 222 227 230 224 216 210 205 204 203 201 201 200 201 201 201 202 202 200 199 198 199 201 202 203 204 207 211 214 214
261 257 251 246 238 235 242 247 246 246 244 235 228 226 224 222 218 218 221 219 213 207 204 203 202 202 203 202 202 202 200 199 199 199 201 202 201 203 206 210 213 214
261 260 257 251 242 232 234 240 242 243 242 238 234 231 229 227 221 216 219 227 227 217 207 206 205 204 205 204 203 203 200 199 199 199 201 202 201 201 203 208 212 213
265 264 263 261 255 240 226 222 223 227 230 231 232 230 227 229 228 223 221 226 236 233 216 208 208 207 207 207 206 205 202 199 199 199 200 201 202 201 202 206 210 211
272 269 267 265 265 260 243 226 221 225 229 233 236 234 231 230 230 229 225 226 240 246 230 214 210 210 209 210 208 205 203 202 201 200 199 199 200 202 202 203 207 209
279 276 273 269 267 268 263 247 235 237 241 244 243 240 237 237 235 231 228 228 239 250 243 224 212 211 211 211 210 207 205 204 203 201 201 199 198 200 201 203 205 206
270 272 274 273 270 270 269 261 246 239 242 246 245 242 237 235 234 231 230 231 237 248 252 239 218 212 213 211 210 210 208 207 205 204 202 201 200 200 201 203 204 205
263 262 267 270 271 269 267 267 256 240 237 240 241 239 237 236 236 234 231 231 233 242 253 248 229 217 216 214 211 211 211 209 206 205 204 203 203 202 202 204 205 204
265 259 259 264 270 269 263 264 262 248 236 234 233 231 230 232 236 237 236 233 230 235 249 253 241 225 219 219 216 213 213 212 207 206 207 206 206 205 204 205 206 205
271 265 258 255 260 265 263 259 259 256 242 232 227 223 220 225 230 233 235 233 229 230 238 246 248 239 224 219 220 218 215 214 210 208 210 209 207 207 206 206 207 207
278 274 266 253 246 253 261 258 256 257 250 235 225 221 219 221 225 228 231 232 233 235 235 235 244 251 239 222 219 218 216 213 211 210 210 209 207 206 207 207 208 210
278 277 274 261 246 244 254 259 256 253 254 243 224 218 219 219 220 223 225 228 231 236 238 234 240 259 263 240 222 218 215 210 208 209 208 206 205 205 206 207 208 210